This is the latest recevied weather packets stored in our database for station/object SA6BET-2. If no packets are shown the sender has not sent any weather packets the latest 10 day(s).
| Time | Temp. | Humidity | Pressure | Rain* | Wind** | Luminosity | Snow |
|---|---|---|---|---|---|---|---|
| 1787946726 | 23.89° C | 100% | 1020.4 hPa | - | - | - | - |
| 1787945826 | 23.89° C | 100% | 1020.3 hPa | - | - | - | - |
| 1787944926 | 23.89° C | 100% | 1020.1 hPa | - | - | - | - |
| 1787944026 | 23.89° C | 100% | 1019.9 hPa | - | - | - | - |
| 1787943125 | 24.44° C | 100% | 1019.7 hPa | - | - | - | - |
| 1787942461 | 25° C | 100% | 1019.5 hPa | - | - | - | - |
| 1787942225 | 25° C | 100% | 1019.5 hPa | - | - | - | - |
| 1787941325 | 25° C | 100% | 1019.3 hPa | - | - | - | - |
| 1787940425 | 25.56° C | 100% | 1019.2 hPa | - | - | - | - |
| 1787939525 | 26.11° C | 100% | 1019.5 hPa | - | - | - | - |
| 1787938625 | 26.67° C | 100% | 1019.6 hPa | - | - | - | - |
| 1787937724 | 26.67° C | 94% | 1019.4 hPa | - | - | - | - |
| 1787936824 | 26.11° C | 88% | 1019.3 hPa | - | - | - | - |
| 1787935924 | 25.56° C | 98% | 1019.2 hPa | - | - | - | - |
| 1787935024 | 25.56° C | 93% | 1019.4 hPa | - | - | - | - |
| 1787934124 | 25.56° C | 92% | 1019.1 hPa | - | - | - | - |
| 1787933224 | 25.56° C | 88% | 1019.1 hPa | - | - | - | - |
| 1787932323 | 25.56° C | 85% | 1018.8 hPa | - | - | - | - |
| 1787931431 | 25.56° C | 89% | 1019.6 hPa | - | - | - | - |
| 1787930531 | 25.56° C | 100% | 1019.2 hPa | - | - | - | - |
| 1787929631 | 24.44° C | 100% | 1019.1 hPa | - | - | - | - |
| 1787928731 | 24.44° C | 100% | 1020 hPa | - | - | - | - |
| 1787927831 | 24.44° C | 100% | 1020.4 hPa | - | - | - | - |
| 1787926931 | 25° C | 100% | 1020.2 hPa | - | - | - | - |
| 1787926030 | 24.44° C | 100% | 1020.4 hPa | - | - | - | - |
* Rain since midnight (hover to see other rain measurements)
** Current wind speed in m/s (hover to see current wind gust speed)